Weather Roundup
Issued by NWS Springfield, MO

Home | Current Version | Previous Version | Text Only | Print | Product List | Glossary On
Versions: 1 2 3 4 5 6 7 8 9 10 11 12 13 14 15 16 17 18 19 20 21 22 23 24 25 26 27 28 29 30 31 32 33 34 35 36 37 38 39 40 41 42 43 44 45 46 47 48 49 50
000
NZUS99 KSGF 181907
HRRSGF

HOURLY WEATHER
NATIONAL WEATHER SERVICE SPRINGFIELD MO
200 PM CDT FRI AUG 18 2017

......SGF CWA......

CITY           SKY/WX    TMP DP  RH WIND       PRES   REMARKS
SPRINGFIELD    CLOUDY    82  73  74 SW10      30.00F
JOPLIN         CLOUDY    86  77  74 SW12      29.99F HX  97
WEST PLAINS    CLOUDY    85  59  41 SW8       30.04F
ROLLA          CLOUDY    80  67  64 SW6       30.01F
OSAGE BEACH    CLOUDY    79  68  69 SW5       30.00F
BRANSON        MOSUNNY   86  68  54 CALM      30.04F

......SURROUNDING SGF CWA......

CITY           SKY/WX    TMP DP  RH WIND       PRES   REMARKS
CHANUTE        SUNNY     89  75  63 SW8       29.96F HX  99
PARSONS        CLOUDY    84  76  76 S7        29.97F HX  93
COFFEYVILLE    MOSUNNY   83  76  79 S10       29.93F HX  91
EMPORIA        SUNNY     86  66  51 W7        29.96F
GROVE OK       CLOUDY    86  79  79 SW3       29.99F HX  99
ROGERS AR      CLOUDY    89  69  51 SW7       30.03F HX  93
SILOAM SPRINGS CLOUDY    88  72  58 SW9       30.00F HX  94
HARRISON AR    SUNNY     87  65  47 VRB3      30.02F
NEAR YELLVILLE SUNNY     90  66  45 S5        29.98F HX  92

......KANSAS AND MISSOURI......

CITY           SKY/WX    TMP DP  RH WIND       PRES   REMARKS
KANSAS CTY INT MOSUNNY   85  70  60 SW13      29.93F
DOWNTOWN KC    SUNNY     87  67  51 SW10      29.91F HX  90
COLUMBIA       CLOUDY    82  68  62 SW9       29.98S
SEDALIA        CLOUDY    77  71  82 S10       29.98F
ST JOSEPH      SUNNY     87  68  52 SW9       29.91F HX  90
ST LOUIS       MOSUNNY   88  62  41 CALM      29.96F
SPIRIT OF STL  MOSUNNY   87  65  47 S5        29.95F
KIRKSVILLE     CLOUDY    87  64  46 SW9       29.92F
WICHITA        MOSUNNY   90  65  43 N8        29.96F HX  92
TOPEKA         SUNNY     91  63  39 NW13      29.92F HX  92
OLATHE         SUNNY     82  69  64 SW12      29.95F

......TENNESSEE......

CITY           SKY/WX    TMP DP  RH WIND       PRES   REMARKS
MEMPHIS        MOSUNNY   89  68  49 NW5       30.00F HX  93
NASHVILLE      MOSUNNY   88  63  43 W10       29.99F

......ARKANSAS.......

CITY           SKY/WX    TMP DP  RH WIND       PRES   REMARKS
FAYETTEVILLE   PTSUNNY   86  73  65 SW12      30.02S HX  93
FT SMITH       MOSUNNY   89  73  59 S6        29.98F HX  97
LITTLE ROCK    PTSUNNY   89  71  55 VRB3      29.99F HX  95

......OKLAHOMA.......

CITY           SKY/WX    TMP DP  RH WIND       PRES   REMARKS
TULSA          PTSUNNY   87  75  67 S12       29.94F HX  96
PONCA CITY     SUNNY     86  68  54 VRB3      29.96F
MCALESTER      SUNNY     91  74  57 SW9       29.99F HX 100
OKLAHOMA CITY  MOSUNNY   89  65  44 S6        29.99F HX  91

......IOWA............

CITY           SKY/WX    TMP DP  RH WIND       PRES   REMARKS
DES MOINES     MOSUNNY   87  60  40 W13       29.88F
QUAD CITIES    SUNNY     81  60  48 SW9       29.90F

......ILLINOIS........

CITY           SKY/WX    TMP DP  RH WIND       PRES   REMARKS
QUINCY         CLOUDY    84  63  49 S9        29.92F
CHICAGO        PTSUNNY   80  60  50 W10       29.86F



USA.gov is the U.S. government's official web portal to all federal, state and local government web resources and services.